Satellite: NO-44
Catalog number: 26931
Epoch time:      11012.52385109
Element set:     653
Inclination:      067.0529 deg
RA of node:       024.6176 deg
Eccentricity:    0.0006712
Arg of perigee:   273.6535 deg
Mean anomaly:     086.3792 deg
Mean motion:   14.29630404 rev/day
Decay rate:       1.77e-06 rev/day^2
Epoch rev:           48467
Checksum:              305

Satellite: SO-50
Catalog number: 27607
Epoch time:      11013.67676091
Element set:     365
Inclination:      064.5586 deg
RA of node:       077.1302 deg
Eccentricity:    0.0054912
Arg of perigee:   358.4555 deg
Mean anomaly:     001.6374 deg
Mean motion:   14.71629985 rev/day
Decay rate:        1.6e-07 rev/day^2
Epoch rev:           43335
Checksum:              308

Satellite: CO-55
Catalog number: 27844
Epoch time:      11013.59784542
Element set:      21
Inclination:      098.7079 deg
RA of node:       024.5399 deg
Eccentricity:    0.0009186
Arg of perigee:   287.1848 deg
Mean anomaly:     072.8322 deg
Mean motion:   14.20761095 rev/day
Decay rate:        5.6e-07 rev/day^2
Epoch rev:           39096
Checksum:              330

Satellite: CO-57
Catalog number: 27848
Epoch time:      11011.54545778
Element set:    0968
Inclination:      098.7132 deg
RA of node:       021.6580 deg
Eccentricity:    0.0009220
Arg of perigee:   298.3809 deg
Mean anomaly:     061.6445 deg
Mean motion:   14.20547277 rev/day
Decay rate:        6.2e-07 rev/day^2
Epoch rev:           39062
Checksum:              321

Satellite: AO-51
Catalog number: 28375
Epoch time:      11012.47472926
Element set:    0870
Inclination:      098.0795 deg
RA of node:       359.2630 deg
Eccentricity:    0.0083225
Arg of perigee:   181.8080 deg
Mean anomaly:     178.2823 deg
Mean motion:   14.40719186 rev/day
Decay rate:        2.9e-07 rev/day^2
Epoch rev:           34364
Checksum:              318

Satellite: CP3
Catalog number: 31129
Epoch time:      11012.52345440
Element set:    0772
Inclination:      097.9163 deg
RA of node:       045.6238 deg
Eccentricity:    0.0101511
Arg of perigee:   304.8329 deg
Mean anomaly:     054.3365 deg
Mean motion:   14.52362665 rev/day
Decay rate:       1.36e-06 rev/day^2
Epoch rev:           19824
Checksum:              277

Satellite: CO-65
Catalog number: 32785
Epoch time:      11013.72269770
Element set:     887
Inclination:      097.8703 deg
RA of node:       080.4389 deg
Eccentricity:    0.0014324
Arg of perigee:   323.3287 deg
Mean anomaly:     036.6940 deg
Mean motion:   14.81805291 rev/day
Decay rate:       -9.1e-07 rev/day^2
Epoch rev:           14666
Checksum:              325

Satellite: KKS-1
Catalog number: 33493
Epoch time:      11013.76159188
Element set:     215
Inclination:      098.1052 deg
RA of node:       140.3793 deg
Eccentricity:    0.0019999
Arg of perigee:   176.8709 deg
Mean anomaly:     183.2642 deg
Mean motion:   14.81282806 rev/day
Decay rate:       7.40e-06 rev/day^2
Epoch rev:           10665
Checksum:              314

Satellite: SOHLA-1
Catalog number: 33496
Epoch time:      11013.49173891
Element set:     306
Inclination:      098.0697 deg
RA of node:       125.0231 deg
Eccentricity:    0.0005524
Arg of perigee:   252.5707 deg
Mean anomaly:     107.4900 deg
Mean motion:   14.69548401 rev/day
Decay rate:        3.9e-07 rev/day^2
Epoch rev:           10576
Checksum:              285

Satellite: TISAT-1
Catalog number: 36799
Epoch time:      11013.76252797
Element set:     489
Inclination:      098.1228 deg
RA of node:       080.3757 deg
Eccentricity:    0.0016583
Arg of perigee:   058.4240 deg
Mean anomaly:     301.8575 deg
Mean motion:   14.80289632 rev/day
Decay rate:       4.46e-06 rev/day^2
Epoch rev:            2746
Checksum:              328

Satellite: STUDSAT
Catalog number: 36801
Epoch time:      11013.82233359
Element set:     118
Inclination:      098.1266 deg
RA of node:       080.3013 deg
Eccentricity:    0.0014833
Arg of perigee:   046.2900 deg
Mean anomaly:     313.9535 deg
Mean motion:   14.79944404 rev/day
Decay rate:      1.152e-05 rev/day^2
Epoch rev:            2746
Checksum:              267

Satellite: RAX
Catalog number: 37223
Epoch time:      11012.40204391
Element set:    0052
Inclination:      071.9722 deg
RA of node:       022.5456 deg
Eccentricity:    0.0022448
Arg of perigee:   219.7794 deg
Mean anomaly:     140.1715 deg
Mean motion:   14.77216282 rev/day
Decay rate:       3.14e-06 rev/day^2
Epoch rev:           00788
Checksum:              262

Satellite: OOREOS
Catalog number: 37224
Epoch time:      11003.47313986
Element set:    0047
Inclination:      071.9731 deg
RA of node:       042.3045 deg
Eccentricity:    0.0021305
Arg of perigee:   233.7010 deg
Mean anomaly:     126.2182 deg
Mean motion:   14.76873402 rev/day
Decay rate:       1.90e-06 rev/day^2
Epoch rev:           00655
Checksum:              247

Satellite: FASTSAT
Catalog number: 37225
Epoch time:      10339.55430316
Element set:    0021
Inclination:      071.9720 deg
RA of node:       106.1057 deg
Eccentricity:    0.0019965
Arg of perigee:   280.4841 deg
Mean anomaly:     079.4053 deg
Mean motion:   14.76483442 rev/day
Decay rate:        4.1e-07 rev/day^2
Epoch rev:           00228
Checksum:              266

